[Date Prev][Date Next][Thread Prev][Thread Next] - [Date Index][Thread Index][Author Index]
2 Line ISS Keps 11-3
- Subject: [sarex] 2 Line ISS Keps 11-3
- From: "Dave Larsen Ph.D." <doc@xxxxxxxxxxx>
- Date: Sun, 3 Nov 2002 02:39:51 -0800
ISS
1 25544U 98067A 02307.19170759 .00040148 00000-0 52969-3 0 3323
2 25544 51.6378 75.0135 0014598 98.2545 331.7961 15.57865384225655
----
Via the sarex mailing list at AMSAT.ORG courtesy of AMSAT-NA.
To unsubscribe, send "unsubscribe sarex" to Majordomo@amsat.org
AMSAT Home